Weather in Khoperskoe

Russia / Saratov Oblast     51°34′26″N   43°14′02″E
В апреле 2022 года жителям России запретили посещать сайт meteo.paraplan.net по решению Генеральной прокуратуры. Аудитория сайта уменьшилась в 10 раз. Владельцы сайта не видят смысла в поддержке погодного сервера в таких условиях. Сайт будет закрыт в октябре.
temp.,
°C
wind,
m/s
gust,
m/s
humid.,
%
clouds,
%
prec.,
mm/h
press.,
hPa
HPBL,
m
25 september, sun
sun2501:00+11ssw4967100 0.0 1009282
04:00+8ssw397996 0.0 1009193
07:00+7ssw38905 0.0 1008199
10:00+11sw61070100 0.0 1007674
13:00+10sw6976100 0.1 10071293
16:00+10wsw697899 0.4 10081010
19:00+9w71083100 0.4 1009843
22:00+8wsw71084100 0.5 1009998
26 september, mon
mon2601:00+8wsw61088100 0.3 10091279
04:00+9w71384100 0.7 10101313
07:00+8w71480100 0.0 1011873
10:00+9wsw61272100 0.1 1012763
13:00+12w91151100 0.0 10131811
16:00+12w71249100 0.0 10142011
19:00+11w4856100 0.0 1015242
22:00+11sw2456100 0.0 1015106
27 september, tue
tue2701:00+11ssw3560100 0.0 1015114
04:00+11s3563100 0.0 1015139
07:00+10se2475100 0.3 1014121
10:00+10ese4687100 2.7 1014237
13:00+16s596399 0.1 10131211
16:00+17ssw4867100 0.6 1011546
19:00+15s3569100 0.3 101286
22:00+14sse3768100 0.3 1011141
28 september, wed
wed2801:00+13sse3678100 0.1 1011114
04:00+13ese4985100 0.1 1009207
07:00+14se51184100 0.0 1008334
10:00+16sse61274100 0.0 1007469
13:00+18sse71366100 0.4 1006828
16:00+19sse61160100 0.5 1005947
19:00+18se61171100 0.6 1005302
22:00+16sse487989 0.8 1005175
29 september, thu
thu2901:00+16ssw2485100 0.0 1006102
04:00+14wsw3390100 0.1 100767
07:00+13w3496100 0.0 100990
10:00+16wnw45740 0.0 1010422
13:00+19wnw45560 0.0 10111110
16:00+20nw55474 0.0 10121394
19:00+16nnw34630 0.0 101560
22:00+13n34764 0.0 101759